Home > Weather > Lowell > Past weeks

Flag for U.S.A. Weather for the Past 2 Weeks in Lowell, Massachusetts, U.S.A.

Now
34 °F

Mostly cloudy.


Feels Like: 26 °F
Forecast: 20 / 32 °F
Wind: 9 mph from Northeast

Location: Nashua / Boire Field

Current Time: Feb 8, 2016 at 1:59:18 AM

Latest Report: Feb 8, 2016 at 12:55 AM


Visibility: 10 mi

Pressure: 30.42 "Hg

Humidity: 75%

Dew point: 27 °F

Location of LowellLocation

Historic Weather in Lowell — Graph

°F

Lowell Temperature Yesterday

Maximum temperature yesterday: 45 °F (at 1:55 PM)
Minimum temperature yesterday: 18 °F (at 2:55 AM)
Average temperature yesterday: 31 °F

High & Low Weather Summary for the Past Weeks

 TemperatureHumidityPressure
High61 °F (Feb 1, 10:55 AM)100% (Feb 1, 5:55 AM)30.43 "Hg (Feb 1, 5:55 AM)
Low7 °F (Feb 6, 4:55 AM)23% (Jan 24, 2:55 PM)29.79 "Hg (Jan 26, 4:55 PM)
Average35 °F67%30.38 "Hg
* Reported Jan 23 11:51 PM — Feb 7 11:55 PM, Lowell, Weather by CustomWeather, © 2016

Note: Actual official high and low records may vary slightly from our data, if they occured in-between our weather recording intervals... More about our weather records

Advertising

Lowell Weather History for the Previous 24 Hours

 ConditionsComfort  
Time TempWeatherWind HumidityBarometerVisibility
11:55 PM
Sun, Feb 7
30 °FOvercast.3 mph86%30.42 "Hg10 mi
10:55 PM28 °FPassing clouds.5 mph86%30.42 "Hg10 mi
9:55 PM25 °FClear.6 mph93%30.42 "Hg10 mi
8:55 PM28 °FClear.6 mph86%30.42 "Hg10 mi
7:55 PM28 °FClear.3 mph86%30.42 "Hg10 mi
6:55 PM30 °FClear.No wind86%30.42 "Hg10 mi
5:55 PM34 °FClear.3 mph75%30.42 "Hg10 mi
4:55 PM39 °FSunny.7 mph56%30.42 "Hg10 mi
3:55 PM43 °FSunny.8 mph46%30.42 "Hg10 mi
2:55 PM45 °FSunny.5 mph39%30.42 "Hg10 mi
1:55 PM45 °FSunny.No wind39%30.42 "Hg10 mi
12:55 PM43 °FSunny.6 mph39%30.42 "Hg10 mi
11:55 AM43 °FSunny.6 mph39%30.42 "Hg10 mi
10:55 AM41 °FSunny.5 mph49%30.42 "Hg10 mi
9:55 AM36 °FSunny.5 mph65%30.42 "Hg10 mi
8:55 AM32 °FSunny.No wind80%30.42 "Hg10 mi
7:55 AM19 °FSunny.No wind100%30.42 "Hg10 mi
6:55 AM18 °FSunny.No wind93%30.42 "Hg10 mi
5:55 AM23 °FClear.5 mph93%30.42 "Hg10 mi
4:55 AM19 °FClear.No wind100%30.42 "Hg10 mi
3:55 AM18 °FClear.No wind93%30.42 "Hg7 mi
2:55 AM18 °FClear.No wind93%30.42 "Hg9 mi
1:55 AM25 °FClear.3 mph80%30.42 "Hg10 mi
Weather by CustomWeather, © 2016

See weather overviewHow to use our weather pages